AirNav   TITAN Aviation Fuels
 
 1184 users online  

9GA1 Briar Patch Airport
Clyo, Georgia, USA

GOING TO CLYO?


FAA INFORMATION EFFECTIVE 03 NOVEMBER 2022

Location

FAA Identifier: 9GA1
Lat/Long: 32-26-56.0000N 081-20-13.0000W
32-26.933333N 081-20.216667W
32.4488889,-81.3369444
(estimated)
Elevation: 100 ft. / 30 m (estimated)
Variation: 05W (1995)
From city: 4 miles SW of CLYO, GA
Time zone: UTC -5 (UTC -4 during Daylight Saving Time)
Zip code: 31303

Airport Operations

Airport use: Private use. Permission required prior to landing
Activation date: 02/1998
Control tower: no
ARTCC: JACKSONVILLE CENTER
FSS: MACON FLIGHT SERVICE STATION
Attendance: UNATNDD
Wind indicator: yes
Segmented circle: no

Airport Communications

WX AWOS-3 at JYL (18 nm NW): 118.875 (912-857-9000)

Nearby radio navigation aids

VOR radial/distance  VOR name  Freq  Var
SAVr345/19.5SAVANNAH VORTAC115.9506W
SVNr341/28.0HUNTER VOR/DME111.6002W
ALDr185/(33.9)ALLENDALE VOR116.7001W

 
NDB name  Hdg/Dist  Freq  Var  ID
SYLVANIA140/17.724507WJYL .--- -.-- .-..
MC INTOSH017/38.126304WMOQ -- --- --.-

Airport Services

Runway Information

Runway 16/34

Dimensions: 2600 x 100 ft. / 792 x 30 m
Surface: turf, in good condition
RUNWAY 16  RUNWAY 34
Traffic pattern: leftleft

Airport Ownership and Management from official FAA records

Ownership: Privately-owned
Owner: TIM O'NEILL
547 GREEN MORGAN SCHOOL ROAD
CLYO, GA 31303
Phone (912) 754-7547
Manager: TIM O'NEILL
547 GREEN MORGAN SCHOOL ROAD
CLYO, GA 31303
Phone (912) 754-7547

Airport Operational Statistics

Aircraft based on the field: 7
Single engine airplanes: 3
Ultralights: 4
    

Additional Remarks

FOR CD CTC SAVANNAH APCH AT 912-964-3205, WHEN APCH CLSD CTC JACKSONVILLE ARTCC AT 904-845-1592.

Instrument Procedures

There are no published instrument procedures at 9GA1.

Some nearby airports with instrument procedures:

KJYL - Plantation Airpark (18 nm NW)
KTBR - Statesboro-Bulloch County Airport (20 nm W)
KSAV - Savannah/Hilton Head International Airport (20 nm S)
KSVN - Hunter Army Airfield (28 nm S)
KCWV - Claxton-Evans County Airport (31 nm SW)
 
Loc | Ops | Rwys | IFR | FBO | Links
Com | Nav | Svcs | Stats | Notes
Area around 9GA1 (Briar Patch Airport)
 
Road maps at: MapQuest Bing Google
 
Aerial photo
WARNING: Photo may not be current or correct
Aerial photo of 9GA1 (Briar Patch Airport)
Photo taken 20-Aug-2005

Do you have a better or more recent aerial photo of Briar Patch Airport that you would like to share? If so, please send us your photo.

 
Sectional chart

 
Airport distance calculator
Flying to Briar Patch Airport? Find the distance to fly.

From to 9GA1

Sunrise and sunset
Times for 28-Nov-2022
 Local
(UTC-5)
 Zulu
(UTC)
Morning civil twilight06:4111:41
Sunrise07:0712:07
Sunset17:1922:19
Evening civil twilight17:4622:46

Current date and time
Zulu (UTC)  28-Nov-2022 22:58:04
Local (UTC-5)  28-Nov-2022 17:58:04
 
METAR
KJYL 
18nm NW 
282235Z AUTO 30004KT 10SM CLR 19/09 A3000 RMK AO2 T01870090
KTBR 
20nm W 
282235Z AUTO 00000KT 10SM CLR 18/08 A3000 RMK AO2 T01800083
KSAV 
21nm S 
282253Z 24005KT 10SM FEW180 SCT250 17/08 A3000 RMK AO2 SLP159 T01720078
KSVN 
28nm S 
282155Z AUTO 28008KT 10SM CLR 21/11 A2996 RMK AO2 SLP149 T02050106 $
KCWV 
31nm SW 
282235Z AUTO 00000KT 7SM CLR 17/11 A3001 RMK AO2 T01690113
KNBC 
31nm E 
282156Z 27006KT 10SM FEW200 20/09 A2998 RMK AO2 SLP151 T02000089
KAQX 
33nm N 
282255Z AUTO 00000KT 10SM CLR 16/10 A2998 RMK AO2 TSNO
KHXD 
35nm E 
282250Z 24004KT 10SM CLR 17/11 A3001
TAF
KSAV 
21nm S 
281720Z 2818/2918 27011KT P6SM SKC FM282200 29006KT P6SM SKC FM290300 00000KT P6SM SKC FM291400 09005KT P6SM FEW250
NOTAMs
Click for the latest NOTAMs
NOTAMs are issued by the DoD/FAA and will open in a separate window not controlled by AirNav.

 

 
 

Would you like to see your business listed on this page?

 If your business provides an interesting product or service to pilots, flight crews, aircraft, or users of the Briar Patch Airport, you should consider listing it here.  To start the listing process, click on the button below
 
Add a business
 

Other Pages about Briar Patch Airport

Update a link
 
Copyright © AirNav, LLC. All rights reserved. Privacy Policy  Contact